Location: Croisilles
(50.1998°N, 2.8793°E)
Time: 08:37:30
(UTC+00:00)

Daily predictions for brighter satellites

Satellite Brightness Start Highest point End
(mag) Time Altitude Azimuth Time Altitude Azimuth Time Altitude Azimuth
Cosmos 1634 Rocket 4.0 16:50:04 10° N 16:56:20 75° E 17:02:37 10° SSE
Cosmos 1486 Rocket 4.4 16:54:05 10° SSW 16:59:18 69° WNW 17:04:32 10° NNE
Okean-O 4.0 16:58:31 10° E 17:01:27 18° ENE 17:04:24 10° NNE
Cosmos 1400 Rocket 4.3 16:57:57 10° NNW 17:01:53 43° W 17:05:44 10° SSW
Okean O Rocket 1.7 16:57:50 10° SSE 17:02:13 62° ENE 17:06:36 10° N
CORIOLIS 4.1 16:57:28 10° SSE 17:02:49 72° ENE 17:08:12 10° NNW
RESURS DK-1 2.5 17:00:42 10° SW 17:04:49 76° WNW 17:08:59 10° NNE
Cosmos 2263 Rocket 2.2 16:59:37 10° SSW 17:05:17 76° ESE 17:10:57 10° NNE
Cosmos 1455 3.6 17:05:30 10° NNE 17:08:09 18° ENE 17:10:48 10° ESE
Meteor 2-5 Rocket 3.7 17:03:22 10° S 17:08:52 67° E 17:14:22 10° NNE
Aureole 2 Rocket 4.2 17:08:16 10° SE 17:09:38 12° E 17:10:57 10° ENE
NOAA 11 4.2 17:06:33 10° SSE 17:12:02 78° ENE 17:17:34 10° NNW
Cosmos 1606 Rocket 3.5 17:08:12 10° N 17:12:35 65° ENE 17:16:58 10° SSE
Cosmos 1300 2.6 17:09:28 10° N 17:13:18 82° E 17:17:07 10° SSE
H-2A R/B 2.2 17:09:30 10° NNE 17:13:56 59° ESE 17:18:15 10° S
AQUARIUS 4.3 17:12:07 10° SSE 17:16:36 86° WSW 17:21:08 10° NNW
NOSS 3-4 (A) 4.2 17:11:06 10° WSW 17:16:50 46° NNW 17:23:07 10° NE
NOSS 3-4 (C) 4.2 17:11:15 10° WSW 17:17:00 47° NNW 17:23:17 10° NE
YAOGAN 1 3.7 17:14:06 10° ESE 17:17:25 22° ENE 17:20:44 10° NNE
Cosmos 1892 Rocket 4.1 17:13:36 10° SSE 17:17:33 35° E 17:21:31 10° NNE
SMAP 3.4 17:14:37 10° S 17:19:15 73° WSW 17:23:56 10° NNW
GENESIS II 4.2 17:15:28 10° SW 17:19:29 88° SE 17:23:31 10° NE
Cosmos 2228 3.0 17:15:52 10° N 17:20:10 85° E 17:24:27 10° S
ARGOS 4.3 17:16:24 10° ESE 17:20:22 22° ENE 17:24:22 10° N
ERS-2 3.7 17:20:31 12° ENE 17:22:26 16° E 17:24:49 10° SE
CZ-2C R/B 4.5 17:26:40 11° E 17:26:40 11° E 17:27:55 10° E
Cosmos 1943 4.2 17:21:26 10° NW 17:26:56 51° WSW 17:32:22 10° S
Cosmos 1503 Rocket 4.4 17:22:09 10° SSW 17:27:30 69° WNW 17:32:54 10° NNE
CZ-4B R/B 2.1 17:25:25 10° NNE 17:28:32 32° E 17:31:33 10° SSE
BREEZE-M DEB (TANK) 1.7 17:26:22 10° W 17:28:55 77° S 17:30:28 17° E
IRS-1C Rocket 4.3 17:25:54 10° SE 17:30:55 47° ENE 17:35:57 10° N
SKYMED 2 4.1 17:27:08 10° NNE 17:31:11 36° E 17:35:12 10° SSE
SJ 16-02 2.5 17:28:27 10° SSE 17:31:57 23° E 17:34:30 14° NE
ATLAS 2AS CENTAUR R/B 3.6 17:26:40 10° WSW 17:34:25 54° NW 17:42:00 10° NE
Cosmos 1833 Rocket 4.0 17:32:21 10° N 17:36:30 20° NE 17:38:57 16° ENE
SeaSat 1 4.1 17:32:42 10° NNE 17:36:55 29° NW 17:41:07 10° WSW
Cosmos 158 Rocket 4.3 17:32:13 10° NNW 17:37:20 45° ENE 17:42:30 10° SE
Meteor 1-24 Rocket 3.6 17:33:33 10° S 17:38:54 89° E 17:44:14 10° NNE
Cosmos 923 Rocket 4.4 17:34:32 10° NNW 17:39:40 43° ENE 17:44:44 10° SE
Cosmos 2082 Rocket 3.8 17:36:53 10° N 17:40:19 16° NNE 17:42:06 14° NE
YAOGAN 3 4.5 17:37:51 10° SSE 17:42:11 74° ENE 17:46:34 10° N
Landsat 5 4.3 17:38:46 10° N 17:42:35 47° WNW 17:46:18 10° SW
Nadezhda 4 Rocket 4.3 17:36:55 10° SSE 17:42:47 45° E 17:48:37 10° NNE
Cosmos 1939 Rocket 2.9 17:39:46 10° SSE 17:43:53 89° WSW 17:48:00 10° NNW
Cosmos 2058 Rocket 3.0 17:41:49 10° N 17:46:21 72° E 17:50:50 10° SSE
Cosmos 1680 Rocket 4.0 17:41:43 10° NNW 17:46:39 38° ENE 17:51:31 10° SE
H-2A R/B 2.4 17:42:34 10° SE 17:47:14 40° ENE 17:52:01 10° N
CZ-4C R/B 3.3 17:43:14 10° W 17:48:15 39° NNW 17:53:55 12° NE
Cosmos 1315 Rocket 4.5 17:46:45 10° NNW 17:50:27 37° W 17:54:09 10° SSW
CZ-2C R/B 3.1 17:45:30 10° SSE 17:50:49 70° ENE 17:56:26 10° N
COSMOS 2455 2.9 17:47:23 10° SSW 17:53:20 65° ESE 17:58:25 15° NE
Cosmos 2227 Rocket 4.4 17:51:43 10° WNW 17:55:20 17° NNW 17:58:59 10° N
Cosmos 1626 4.2 17:52:40 10° SW 17:55:52 27° WNW 17:59:05 10° NNW
MOS 1 Rocket 3.2 17:52:02 10° NNE 17:56:15 49° E 18:00:24 10° S
Feng Yun 1-1 Rocket 4.2 17:51:00 10° SSE 17:56:26 86° WSW 18:02:03 10° NNW
CZ-4 R/B 1.4 17:54:17 10° SSE 17:58:17 54° ENE 18:02:14 10° N
Cosmos 1726 Rocket 4.3 17:54:50 10° NNW 17:59:07 55° W 18:03:23 10° S
Cosmos 1844 Rocket 3.0 17:53:53 10° S 17:59:17 47° ESE 18:03:17 18° NE
USA 234 3.6 17:55:48 20° ENE 18:00:18 51° N 18:06:36 10° WNW
Cosmos 1818 3.9 17:56:08 10° SSW 18:01:17 46° ESE 18:04:19 23° ENE
Iridium 4 Rocket 4.2 17:56:59 10° N 18:02:14 36° ENE 18:07:07 10° SE
Okean 1-7 Rocket 3.6 17:58:39 10° S 18:03:09 68° E 18:07:43 10° NNE
CREW DRAGON DEMO-1 DEB 2.8 18:01:27 10° WNW 18:04:21 69° SSW 18:05:17 37° SE
SAR-Lupe-4 4.0 18:06:12 35° ENE 18:06:46 37° E 18:10:06 10° SSE
Meteor 2-10 Rocket 3.9 18:02:37 10° NNW 18:08:10 73° W 18:13:27 10° S
X-37B 2.5 18:06:55 10° SSW 18:09:18 19° SSE 18:09:46 19° SSE
Cosmos 1626 Rocket 3.9 18:05:19 10° SSE 18:09:27 42° E 18:12:05 20° NNE
Meteor 1-21 Rocket 4.2 18:07:51 10° S 18:13:13 54° E 18:18:38 10° NNE
Cosmos 44 4.3 18:13:25 10° S 18:17:26 27° ESE 18:17:27 27° ESE
SAR-Lupe-1 4.2 18:17:08 46° E 18:17:29 48° E 18:20:57 10° S
COSMO-SKYMED 1 2.7 18:15:03 10° NNE 18:19:25 78° WNW 18:23:45 10° SSW
Cosmos 2026 Rocket 4.3 18:14:01 10° SSE 18:19:39 40° E 18:25:23 10° NNE
CZ-2D R/B 4.1 18:17:19 10° S 18:21:06 52° W 18:24:52 10° NNW
CSL-04 Rocket 3.7 18:17:46 10° SE 18:23:03 57° ENE 18:28:27 10° N
Cosmos 2112 Rocket 3.9 18:19:22 10° NNW 18:24:36 63° ENE 18:28:48 15° SE
ATLAS 5 CENTAUR R/B 2.8 18:22:45 10° W 18:26:38 34° NNW 18:29:12 20° NNE
Lacrosse 5 2.5 18:24:59 10° WNW 18:29:55 53° SW 18:34:00 15° SSE
Aureole 3 3.3 18:27:46 10° NNW 18:31:19 62° W 18:34:22 10° S
ISS -3.1 18:29:29 10° SW 18:32:21 43° S 18:32:21 43° S
SL-08 RB Rocket 3.7 18:36:35 52° ENE 18:36:40 52° ENE 18:41:03 10° N
Okean-O 2.9 18:33:02 10° S 18:37:27 70° WSW 18:41:54 10° NNW
Meteor 2-8 Rocket 4.3 18:32:32 10° N 18:38:38 72° ENE 18:44:43 10° SSE
Meteor 2-15 4.5 18:32:51 10° N 18:38:53 53° ENE 18:44:53 10° SSE
Cosmos 2344 4.2 18:33:19 10° NW 18:42:12 72° NE 18:51:01 21° ESE
Aureole 2 Rocket 3.1 18:39:18 10° SW 18:42:13 43° WNW 18:42:23 42° NW
Cosmos 1455 3.3 18:40:21 10° NNW 18:44:00 44° W 18:47:39 10° SSW
Helios 1A Rocket 3.1 18:40:04 10° S 18:44:12 74° WSW 18:48:22 10° NNW
Cosmos 2195 Rocket 4.4 18:39:10 10° S 18:45:27 72° E 18:51:47 10° NNE
NOSS 3-1 (C) 3.9 18:38:58 10° NW 18:46:16 83° NE 18:51:58 23° SE
Cosmos 1689 Rocket 4.3 18:49:45 19° SSW 18:49:45 19° SSW 18:50:41 10° SSW
Cosmos 2263 Rocket 4.0 18:45:04 10° W 18:49:48 26° NW 18:54:29 10° NNE
Cosmos 1602 Rocket 3.3 18:45:35 10° S 18:49:54 80° E 18:50:10 76° NE
USA 281 4.1 18:52:47 29° NE 18:52:47 29° NE 18:57:49 10° NNW
YAOGAN 1 3.4 18:49:01 10° S 18:53:13 50° W 18:57:27 10° NNW
ERS-2 3.1 18:55:04 33° NNW 18:56:13 45° WNW 18:59:42 10° SW
Cosmos 1627 Rocket 4.3 18:51:01 10° S 18:57:11 77° E 19:03:28 10° NNE
Cosmos 990 Rocket 3.8 18:52:40 10° SSW 18:57:51 71° ESE 18:58:09 69° E
Cosmos 1703 3.6 18:55:04 10° SSW 18:58:22 60° SW 18:58:22 60° SW
Cosmos 1428 Rocket 4.4 18:53:11 10° S 18:59:26 75° E 19:05:46 10° NNE
ARGOS 3.3 18:54:45 10° S 19:00:06 74° WSW 19:05:31 10° NNW
CZ-4B R/B 4.0 18:58:01 10° NNW 19:00:33 20° WNW 19:03:02 10° WSW
USA 229 DEB 3.8 18:56:35 10° NW 19:03:51 81° NE 19:06:38 43° SE
USA 229 3.8 18:56:41 10° NW 19:03:57 80° NE 19:06:40 44° SE
COSMOS 2406 3.1 18:58:11 10° NNW 19:03:59 68° ENE 19:04:20 66° E
Cosmos 1812 Rocket 4.0 19:01:40 10° NNW 19:06:02 61° W 19:10:20 10° S
USA 267 4.0 19:07:17 35° SE 19:07:17 35° SE 19:12:28 10° SSW
CZ-2C R/B 2.7 19:08:10 62° SE 19:08:10 62° SE 19:13:08 10° S
Meteor 2-15 Rocket 4.3 19:02:27 10° N 19:08:37 69° ENE 19:09:30 61° ESE
Ariane Rocket 4.5 19:12:51 25° N 19:12:51 25° N 19:15:03 10° N
SJ 16-02 2.3 19:06:03 10° SW 19:10:16 44° WNW 19:11:33 35° NNW
Cosmos 1092 Rocket 4.1 19:05:23 10° SSW 19:11:34 72° WNW 19:17:45 10° N
CZ-3B R/B 3.1 19:15:48 10° WNW 19:18:49 48° SSW 19:20:07 40° S
NOSS 3-1 (A) 3.9 19:12:06 10° NW 19:19:27 84° NE 19:21:50 52° SE
Cosmos 1833 Rocket 2.7 19:15:44 10° NNW 19:20:41 67° N 19:20:41 67° N
Cosmos 1844 4.2 19:18:55 10° SW 19:24:30 57° NW 19:26:16 40° N
Cosmos 2082 Rocket 3.1 19:20:14 10° NNW 19:23:58 37° N 19:23:58 37° N
H-2A R/B 3.7 19:22:18 10° SSW 19:26:46 32° W 19:31:21 10° NNW
ATLAS 2AS CENTAUR R/B 4.1 19:20:15 10° WNW 19:27:06 31° N 19:29:35 26° NNE
Cosmos 1898 Rocket 3.8 19:24:35 10° SSW 19:28:59 61° SW 19:28:59 61° SW
CZ-4 R/B 4.2 19:30:54 10° SW 19:33:37 17° W 19:36:18 10° NW
CZ-4C R/B 3.9 19:33:35 10° WNW 19:38:33 26° N 19:39:07 25° N
Cosmos 2098 Rocket 4.5 19:31:56 10° SSW 19:39:08 74° WNW 19:46:35 10° N
COSMOS 2455 4.1 19:34:11 10° WSW 19:39:41 35° NW 19:41:35 29° N
USA 234 3.1 19:43:09 80° N 19:43:09 80° N 19:49:35 10° WNW
Cosmos 1844 Rocket 3.9 19:38:05 10° WSW 19:43:19 37° NW 19:44:59 31° NNW
Cosmos 1818 4.5 19:39:45 10° WSW 19:44:56 43° NW 19:44:59 43° NW
ATLAS 5 CENTAUR R/B 4.3 20:09:24 10° NW 20:10:44 15° NW 20:10:44 15° NW
